Terminal Aerodrome Forecast
Issued by NWS St Louis, MO

Home | Current Version | Previous Version | Text Only | Print | Product List | Glossary Off
Versions: 1 2 3 4 5 6 7 8 9 10 11 12 13 14 15 16 17 18 19 20 21 22 23 24 25

000
FTUS43 KLSX 030500
TAFSTL
TAF
KSTL 030530Z 0306/0412 13006KT P6SM FEW030 SCT250
     FM031400 15005KT P6SM SCT020
     FM031600 15007KT P6SM SCT040
     FM040200 13004KT P6SM SCT120=

USA.gov is the U.S. government's official web portal to all federal, state and local government web resources and services.